User: anonymous   Login
Location: Unspecified
(0.0000°N, 0.0000°E)
Time: 06:40:14
(UTC+00:00)
Language:

STARLINK-33945 - Orbit

View from above orbital plane
View from above orbital plane
View from above satellite
View from above satellite

Ground track
Ground track

The orbit is defined by the following mean orbital elements,

1 64154U          26145.40395295 +.00000000 +00000-0 +36843-3 0 00005
2 64154  97.4473 205.2770 0001984 144.7677 215.3682 15.05653939    00
Epoch (UTC): 25 May 2026 09:41:41
Eccentricity: 0.0001984
inclination: 97.4473°
perigee height: 548 km
apogee height: 551 km
right ascension of ascending node: 205.2770°
argument of perigee: 144.7677°
revolutions per day: 15.05653939
mean anomaly at epoch: 215.3682°

The dashed part of the orbit path shows where the satellite is in the earth's shadow,  

DLR